ギブス彗星

C/2018 A6 ( Gibbs )

English version
Home page
Updated on July 30, 2018

---------------------------------------------------------------------

・ プロフィール

発見日 2018年1月15日
発見光度 19.3等
発見者 A. R. Gibbs (Mount Lemmon)

・ 写真集

・ 軌道要素

Epoch 2019 July 16.0 TT = JDT 2458680.5
T 2019 July 14.28407 TT                                 MPCW
q   3.0179849            (2000.0)            P               Q
n   0.01637999     Peri.  264.52449     -0.16530030     +0.93044797
a  15.3553721      Node   340.38599     +0.22096548     -0.28821261
e   0.8034574      Incl.   76.95613     -0.96117120     -0.22627433
P  60.17
From 170 observations 2018 Jan. 15-May 10, mean residual 0".4.

・ 星図

・ 光度変化

        m1 = 8.5 + 5 logΔ + 10.0 log r

---------------------------------------------------------------------

軌道要素はM.P.E.C. 2018-K95に掲載されたものです。
星図はステラナビゲータ Ver.10 (アストロアーツ) で作成したものです。
光度グラフはComet for Windowsで作成したものです。

---------------------------------------------------------------------

Copyright(C) Seiichi Yoshida (comet@aerith.net). All rights reserved.